User: anonymous   Login
Location: Unspecified
(0.0000°N, 0.0000°E)
Time: 14:19:41
(UTC+00:00)
Language:

Telecom 2D - Orbit

View from above orbital plane
View from above orbital plane
View from above satellite
View from above satellite

Ground track
Ground track

The orbit data is extracted from the following two-line orbital elements,

1 24209U 96044B   18114.39104984 -.00000014  00000-0  00000+0 0  9998
2 24209   9.1969  43.4978 0020113 304.1384 242.8122  0.98446469 79274
Epoch (UTC): 24 April 2018 09:23:06
Eccentricity: 0.0020113
inclination: 9.1969°
perigee height: 36220 km
apogee height: 36391 km
right ascension of ascending node: 43.4978°
argument of perigee: 304.1384°
revolutions per day: 0.98446469
mean anomaly at epoch: 242.8122°
orbit number at epoch: 7927

The dashed part of the orbit path shows where the satellite is in the earth's shadow,  

DLR